Tracking 28793 objects as of 20-Apr-2024
HD Live streaming from Space Station
objects crossing your sky now

DELTA 1 DEB *

Track DELTA 1 DEB * now!
10-day predictions


NORAD ID: 6213
Int'l Code: 1966-087E
Perigee: 1,168.3 km
Apogee: 1,224.1 km
Inclination: 101.8 °
Period: 109.2 minutes
Semi major axis: 7567 km
RCS: 0.0157 m2 (small)
Launch date: October 2, 1966
Source: United States (US)
Launch site: AIR FORCE WESTERN TEST RANGE (AFWTR)

Note: This is SATELLITE DEBRIS
Your satellite tracking list
Your tracking list is empty




NASA's NSSDC Master Catalog

Two Line Element Set (TLE):
1 06213U 66087E   24110.69998324  .00006177  00000-0  15680-1 0  9999
2 06213 101.8495  21.6951 0036874 144.6007 245.1599 13.18859595692103
Source of the keplerian elements: AFSPC